STARLINK-35630, 66131

Orbit data source: Space-Track

STARLINK-35630, 66131 is a payload satellite owned by SpaceX/Seattle (US) in LEO that was launched on Wed, 22 Oct 2025 UTC via an FALCON 9 launch vehicle from the Air Force Western Test Range (AFWTR). Payload-class satellites include a variety of spacecraft equipped with specific instruments for various scientific and technological missions. These include communications satellites like Starlink; space stations such as the ISS; scientific satellites like the Hubble; Earth observation satellites from companies like Planet Labs, Umbra, and HawkEye 360; GPS; miniature CubeSats for education and research; and military/defense satellites.

Loading next visibility...
Identifier
66131, 2025-237T
Orbit
LEO
Country
Flag of USUS
Related business
Manufacturer
SpaceX/Seattle
Mission
Operational Commercial Communications
Bus & Motor
STARLINK V2MO, Unknown motor
Mass
575 kg wet, ~530 kg dry
Launch date (UTC)
2025-10-22 (8 months ago)
Launch vehicle
FALCON 9
Launch site
Air Force Western Test Range (AFWTR)
Object type
Payload
Rocket body
Debris
Shape & HBR
Box + 2 Pan, 17.7 m
Radar Cross Section
36.964 m², Large (>1 m²)

Expand to show TLE details & history
Last TLE update: 10 hours ago

TLE from 10 hours ago
0 STARLINK-35630
1 66131U 25237T   26171.45732038  .00032527  00000-0  96934-3 0  9998
2 66131  53.1593 281.6462 0001240  85.5248 274.5896 15.34409612 38358
Epoch: 2026-06-20T10:58Z
TLE epoch observation values (Epoch: 2026-06-20T10:58:32.480Z)
Latitude
-0.00006°
Longitude
-151.66085°
Altitude
463.508 km
Speed
7.636 km/s
True Right ascension
18h 46m 35s
True Declination
0° 00' 00"
Sunlit
Object was in full shadow at epoch
Visualization orbit readout
Latitude
Unknown
Longitude
Unknown
Altitude
Unknown
Speed
Unknown
Apparent Right ascension
Unknown
Apparent Declination
Unknown
Sunlit
N/A
Visualization observer readout
Local Sidereal Time
07:24:26
Azimuth
Unknown
Elevation
Unknown
Doppler factor
Unknown
Orbital elements
Apogee altitude
463.78 km
Perigee altitude
462.083 km
Semi-major axis
6,841.069 km
Eccentricity
0.00012
Inclination
53.1593°
RAAN
281.6462°
Arg. of periapsis
85.5248°
True anomaly
274.57544°
Mean anomaly
274.5896°
Eccentric anomaly
274.58252°
Mean motion
3.83581 °/min
Orbital period
93.85 mins
BSTAR
0.00096934
Loading maneuver chart data...
Computing Atmospheric mass density...
Loading historical data...
Loading historical data...
Loading historical data...
Loading historical data...
Loading historical data...
Loading historical data...
Loading historical data...

Documentation

Showing up to 5 results
|